Home   Weather   Isabela City   Past weeks

Flag for Philippines Past Weather in Isabela City, Philippines — Yesterday and Last 2 Weeks

79 °F

Passing clouds.

Feels Like: 82 °F
Forecast: 79 / 87 °F
Wind: No wind

Location: Zamboanga

Current Time: Oct 22, 2016 at 7:46:15 AM

Latest Report: Oct 22, 2016 at 7:00 AM

Visibility: N/A

Pressure: 29.89 "Hg

Humidity: 89%

Dew Point: 75 °F

Location of Isabela CityLocation

Past Weather in Isabela City — Graph


Isabela City Temperature Yesterday

Maximum temperature yesterday: 84 °F (at 11:00 AM)
Minimum temperature yesterday: 77 °F (at 5:00 AM)
Average temperature yesterday: 81 °F

High & Low Weather Summary for the Past Weeks

High93 °F (Oct 8, 2:00 PM)100% (Oct 12, 6:00 AM)29.92 "Hg (Oct 12, 6:00 AM)
Low75 °F (Oct 12, 11:00 PM)53% (Oct 8, 2:00 PM)29.74 "Hg (Oct 14, 3:00 PM)
Average84 °F79%29.83 "Hg
* Reported Oct 7 6:00 AM — Oct 22 6:00 AM, Isabela City, Weather by CustomWeather, © 2016

Note: Actual official high and low records may vary slightly from our data, if they occured in-between our weather recording intervals... More about our weather records


Isabela City Weather History for the Previous 24 Hours

Scroll right to see more
Time TempWeatherWind HumidityBarometerVisibility
6:00 AM
Sat, Oct 22
77 °FPartly sunny.No wind89%29.89 "HgN/A
5:00 AM77 °FPassing clouds.No wind94%29.86 "HgN/A
2:00 AM79 °FPassing clouds.No wind84%29.83 "HgN/A
11:00 PM
Fri, Oct 21
81 °FPassing clouds.No wind84%29.89 "HgN/A
8:00 PM82 °FMostly cloudy.No wind74%29.89 "HgN/A
6:00 PM84 °FPassing clouds.2 mph62%29.86 "HgN/A
5:00 PM84 °FBroken clouds.7 mph66%29.83 "HgN/A
4:00 PM84 °FBroken clouds.12 mph70%29.80 "HgN/A
3:00 PM84 °FPartly sunny.12 mph70%29.80 "HgN/A
2:00 PM82 °FPartly sunny.12 mph74%29.80 "HgN/A
1:00 PM82 °FPartly sunny.16 mph79%29.83 "HgN/A
12:00 PM82 °FScattered showers. Partly sunny.18 mph79%29.89 "Hg6 mi
11:00 AM84 °FPartly sunny.12 mph74%29.89 "HgN/A
10:00 AM81 °FPartly sunny.2 mph89%29.92 "HgN/A
9:00 AM79 °FLight rain. Broken clouds.2 mph89%29.92 "HgN/A
8:00 AM77 °FSprinkles. More clouds than sun.2 mph94%29.92 "Hg5 mi
7:00 AM79 °FMore clouds than sun.No wind89%29.83 "HgN/A
Weather by CustomWeather, © 2016

See weather overviewHow to use our weather pages